Regional Weather Roundup
Issued by NWS Dallas/Fort Worth, TX

Home | Current Version | Previous Version | Graphics & Text | Print | Product List | Glossary Off
Versions: 1 2 3 4 5 6 7 8 9 10 11 12 13 14 15 16 17 18 19 20 21 22 23 24 25 26 27 28 29 30 31 32 33 34 35 36 37 38 39 40 41 42 43 44 45 46 47 48 49 50

000
ASUS44 KFWD 261103
RWRFWD
NORTH TEXAS HOURLY WEATHER ROUNDUP
NATIONAL WEATHER SERVICE FORT WORTH TX
600 AM CDT TUE OCT 26 2021

NOTE: "FAIR" INDICATES FEW OR NO CLOUDS BELOW 12,000 FEET WITH NO
SIGNIFICANT WEATHER AND/OR OBSTRUCTIONS TO VISIBILITY.

TXZ118-119-261200-
DALLAS/FORT WORTH METROPLEX

CITY           SKY/WX    TMP DP  RH WIND       PRES   REMARKS
DFW AIRPORT    CLEAR     70  69  97 SE6       29.88R
DALLAS LOVE    PTCLDY    72  70  93 S8        29.89S
FTW MEACHAM    CLEAR     70  70 100 SE8       29.88
DAL-EXECUTIVE  CLEAR     70  68  93 SE6       29.89S
FTW-ALLIANCE   PTCLDY    72  71  97 S10       29.88S
FTW-NAS-JRB    PTCLDY    75  71  87 S8        29.88S
FTW-SPINKS     CLEAR     71  70  94 SE6       29.90S
ARLINGTON      CLEAR     75  70  84 SE7       29.89S
GRAND PRAIRIE  CLEAR     72  72 100 SE6       29.91R
ADDISON        CLEAR     72  68  88 SE7       29.91S
MESQUITE         N/A     67  67 100 SE5       29.91S VSB 1
LANCASTER      CLEAR     69  67  96 SE3       29.91S
$$

TXZ091>094-102>105-117-120-121-131>134-261200-
NORTH CENTRAL TEXAS

CITY           SKY/WX    TMP DP  RH WIND       PRES   REMARKS
SHRMAN/DENISON CLEAR     63  52  68 E9        29.93R
BOWIE          CLEAR     66  65  94 SE6       29.87S
BRIDGEPORT     CLEAR     63  63 100 S5        29.88F
DECATUR        CLEAR     71  69  92 SE10      29.88S
DENTON         CLEAR     68  67  96 SE8       29.89R
MCKINNEY       MOCLDY    65  57  75 SE3       29.91R
BONHAM         CLOUDY    65  53  65 E10       29.93S
GREENVILLE     PTCLDY    64  56  76 E5        29.93R
ROCKWALL       CLEAR     65  65 100 E5        29.91S
TERRELL        CLEAR     67  66  97 CALM      29.92R
WAXAHACHIE     CLEAR     69  69 100 SE3       29.91S FOG
GRANBURY       MOCLDY    72  69  91 SE10      29.89S
$$

TXZ083>090-098>101-113>116-127>130-139>142-154-155-261200-
WESTERN NORTH TEXAS

CITY           SKY/WX    TMP DP  RH WIND       PRES   REMARKS
WICHITA FALLS  CLEAR     68  68 100 SE10      29.82S
WF-KICKAPOO    CLEAR     69  67  94 S10       29.84S
VERNON         CLEAR     71  69  95 S8        29.81S
ABILENE        MOCLDY    70  67  90 S14       29.86S
ABILENE-DYESS  PTCLDY    70  65  82 SE17      29.83S
CISCO          CLOUDY    72  70  94 S13       29.86S
EASTLAND       CLOUDY    72  68  88 S12G20    29.88F
RANGER         CLOUDY    71  69  95 S8        29.89S
MINERAL WELLS  CLOUDY    69  68  96 SE9       29.86R FOG
STEPHENVILLE   MOCLDY    69  67  93 S3        29.91S
COMANCHE       CLEAR     71  71 100 S8        29.89S
COLEMAN        CLOUDY    72  68  89 S10       29.89R
BRADY            N/A     72  66  83 S8          N/A
SAN SABA       MOSUNNY   69  68  94 SE5       29.91S
$$

TXZ143>147-156>162-174-175-261200-
CENTRAL TEXAS

CITY           SKY/WX    TMP DP  RH WIND       PRES   REMARKS
WACO           PTCLDY    72  69  90 S7        29.89S
WACO-MCGREGOR  PTCLDY    70  69  97 S6        29.90S
CORSICANA      CLEAR     71  69  93 S8        29.92S
MEXIA          CLOUDY    70  70  99 S6        29.91S FOG
HEARNE         CLOUDY    73  72  96 CALM      29.93R FOG
CAMERON        CLOUDY    73  72  96 S3        29.91S
TEMPLE         CLOUDY    71  71 100 S16       29.91S FOG
KILLEEN        MOCLDY    70  68  95 S10       29.89R
KILLEEN-SKYLRK CLOUDY    71  70  96 S8        29.92R
FORT HOOD      CLOUDY    71  69  96 S9        29.91R
GATESVILLE     PTCLDY    68  68 100 CALM      29.91S
HAMILTON       PTCLDY    69  69 100 S8        29.90F FOG
$$

TXZ095>097-106>112-122>126-135>138-148>153-164>167-261200-
EAST TEXAS

CITY           SKY/WX    TMP DP  RH WIND       PRES   REMARKS
PARIS          CLOUDY    65  54  67 E14       29.97R
SULPHUR SPRNGS MOCLDY    68  53  58 E9        29.96S
MOUNT PLEASANT CLOUDY    66  55  68 E12       29.97S
MINEOLA        MOCLDY    68  57  68 E3        29.94R
TYLER          CLOUDY    72  69  90 SE7       29.94R
LONGVIEW       CLOUDY    69  54  58 SE9       29.96R
MARSHALL       CLOUDY    63  56  76 CALM      30.01R
ATHENS         FOG       68  66  94 CALM      29.92R VSB 1
PALESTINE      CLOUDY    70  70 100 CALM      29.93R FOG
CENTER         PTCLDY    68  61  77 E3        29.98S
NACOGDOCHES    CLOUDY    71  69  93 E5        29.96R
LUFKIN         FOG       70  70 100 E3        29.95R VSB 3/4
$$

SUPPLEMENTAL OBSERVATIONS (NWS FORT WORTH AREA)

CITY           SKY/WX    TMP DP  RH WIND       PRES   REMARKS
$$

SUPPLEMENTAL OBSERVATIONS (NWS NORMAN AREA)

CITY           SKY/WX    TMP DP  RH WIND       PRES   REMARKS
GOODLETT         N/A     63  59  87 SE8       29.79F
ODELL            N/A     65  63  93 SE12      29.82S
CROWELL          N/A     68  65  90 S9        29.82S
KNOX CITY        N/A     66  64  93 S7        29.82S
SEYMOUR          N/A     70  66  88 SE10      29.82S
$$

SUPPLEMENTAL OBSERVATIONS (NWS SAN ANGELO AREA)

CITY           SKY/WX    TMP DP  RH WIND       PRES   REMARKS
WEINERT          N/A     71  66  84 S14       29.83S
HASKELL          N/A     69  66  90 S8        29.83R
THROCKMORTON     N/A     71  69  96 S13       29.84S
STAMFORD         N/A     69  67  92 S6        29.85R
CLYDE            N/A     70  68  95 S17       29.88S
$$

SUPPLEMENTAL OBSERVATIONS (NWS SHREVEPORT AREA)

CITY           SKY/WX    TMP DP  RH WIND       PRES   REMARKS
$$

SUPPLEMENTAL OBSERVATIONS ARE A COLLECTION OF AUTOMATED INSTRUMENTS
THAT ARE MAINTAINED BY A VARIETY OF FEDERAL AND STATE AGENCIES.
CERTAIN ELEMENTS...SUCH AS HUMIDITY VALUES AND SUSTAINED WIND
SPEEDS...MAY BE APPROXIMATED.




USA.gov is the U.S. government's official web portal to all federal, state and local government web resources and services.